Regional Weather Roundup
Issued by NWS

Home | Current Version | Previous Version | Graphics & Text | Print | Product List | Glossary On
Versions: 1 2 3 4 5 6 7 8 9 10 11 12 13 14 15 16 17 18 19 20 21 22 23 24 25 26 27 28 29 30 31 32 33 34 35 36 37 38 39 40 41 42 43 44 45 46 47 48 49 50
000
ASUS43 KMKX 261600
RWRWI

WISCONSIN REGIONAL WEATHER ROUNDUP
NATIONAL WEATHER SERVICE MILWAUKEE/SULLIVAN WI
1100 AM CDT SAT MAY 26 2018

NOTE: "FAIR" INDICATES FEW OR NO CLOUDS BELOW 12,000 FEET WITH NO
SIGNIFICANT WEATHER AND/OR OBSTRUCTIONS TO VISIBILITY.

WIZ001-002-006>008-014>016-023>028-261700-
NORTHWEST WISCONSIN

CITY           SKY/WX    TMP DP  RH WIND       PRES   REMARKS
SUPERIOR ARPT  FAIR      76  61  60 N5        29.66F
ASHLAND        FAIR      81  62  52 W8        29.68S HX  82
HAYWARD        FAIR      79  64  60 VRB5      29.71S HX  81
SIREN          FAIR      80  59  49 SW5       29.71S HX  80
CUMBERLAND     FAIR      77  61  57 W3        29.73R
RICE LAKE      FAIR      80  63  55 SW7       29.74S HX  81
CHETEK         FAIR      79  65  62 W5        29.73S HX  81
LADYSMITH      FAIR      79  65  63 S8        29.75S HX  81
EAU CLAIRE     NOT AVBL
MENOMONIE      FAIR      80  66  62 S3        29.73S HX  82
NEW RICHMOND   FAIR      80  64  57 CALM      29.72S HX  81
OSCEOLA        FAIR      80  63  56 SW5       29.74S HX  81
$$

WIZ003>005-009-010-017-018-261700-
NORTH CENTRAL WISCONSIN

CITY           SKY/WX    TMP DP  RH WIND       PRES   REMARKS
MANITOWISH WTR FAIR      81  61  51 S8        29.73S HX  81
ARBOR VITAE    FAIR      81  60  48 S7        29.73F HX  81
WOODRUFF       FAIR      81  60  48 S7        29.73F HX  81
RHINELANDER    FAIR      83  60  45 SW7       29.76F HX  83
EAGLE RIVER    FAIR      80  56  43 SW7       29.74F HX  80
LAND O LAKES   NOT AVBL
PHILLIPS       FAIR      78  63  60 S8        29.73S HX  80
TOMAHAWK       FAIR      81  60  49 CALM      29.76S HX  82
MEDFORD        FAIR      76  64  64 SW6       29.76S
MERRILL        FAIR      80  61  51 W3        29.76S HX  81
$$

WIZ029-030-035-036-043>047-261700-
CENTRAL WISCONSIN

CITY           SKY/WX    TMP DP  RH WIND       PRES   REMARKS
WAUSAU         NOT AVBL
MOSINEE        MOSUNNY   79  64  61 SW6       29.78S HX  81
MARSHFIELD     FAIR      80  63  55 S5        29.76S HX  81
STEVENS POINT  FAIR      76  62  61 SW6       29.78S
WAUPACA        FAIR      84  61  45 CALM      29.76F HX  84
WAUTOMA        FAIR      80  62  54 CALM      29.77S HX  81
WISC RAPIDS    FAIR      82  61  48 VRB6      29.78S HX  83
CAMP DOUGLAS   NOT AVBL
$$

WIZ011>013-019>022-031-037>040-048>050-261700-
NORTHEAST WISCONSIN

CITY           SKY/WX    TMP DP  RH WIND       PRES   REMARKS
ANTIGO         FAIR      80  60  50 SW3       29.77F HX  81
SHAWANO        FAIR      82  60  47 CALM      29.75S HX  82
OCONTO         FAIR      80  62  53 W6        29.73S HX  81
STURGEON BAY   FAIR      80  63  55 SW6       29.74F HX  81
GREEN BAY      FAIR      83  62  49 VRB6      29.75S HX  84
MANITOWOC      NOT AVBL
APPLETON       SUNNY     79  57  47 W5        29.76S HX  80
CLINTONVILLE   FAIR      81  60  49 SW7       29.76S HX  81
OSHKOSH        FAIR      80  64  58 NW7       29.77R HX  82
$$

WIZ032>034-041-042-053>061-261700-
SOUTHWEST WISCONSIN

CITY           SKY/WX    TMP DP  RH WIND       PRES   REMARKS
LA CROSSE      FAIR      79  68  69 VRB6      29.75F HX  81
SPARTA         FAIR      78  65  65 W5        29.77S HX  80
VIROQUA        FAIR      78  66  66 CALM      29.80R HX  80
BOSCOBEL       FAIR      79  67  66 CALM      29.78S HX  81
PRAIRIE DU CHI FAIR      79  66  65 SW5       29.77F HX  81
PLATTEVILLE    FAIR      76  69  79 SW9       29.81S
$$

WIZ056-057-062-063-064-067-068-261700-
SOUTH CENTRAL WISCONSIN

CITY           SKY/WX    TMP DP  RH WIND       PRES   REMARKS
REEDSBURG      FAIR      78  66  66 SW3       29.77F HX  80
BARABOO/DELLS  FAIR      80  62  53 CALM      29.78S HX  81
LONE ROCK      FAIR      79  67  66 SW5       29.78S HX  81
MINERAL POINT  FAIR      79  68  69 W7        29.81S HX  81
MADISON        FAIR      80  65  59 SW6       29.78S HX  82
MIDDLETON      FAIR      81  65  58 CALM      29.80S HX  82
WATERTOWN      FAIR      80  65  60 W6        29.78F HX  81
MONROE         FAIR      79  61  53 NW8       29.80S HX  80
JANESVILLE     SUNNY     82  61  47 NW9       29.79S HX  83
$$

WIZ051-052-058>065-066-070>072-261700-
SOUTHEAST WISCONSIN

CITY           SKY/WX    TMP DP  RH WIND       PRES   REMARKS
MILWAUKEE      FAIR      83  62  49 NW10      29.76F HX  84
WAUKESHA       SUNNY     79  61  53 W8        29.80S HX  80
MILWAUKEE/TIMM SUNNY     81  57  44 W9        29.78S HX  81
RACINE         FAIR      83  61  47 NW8       29.78S HX  83
BURLINGTON     FAIR      82  62  50 NW9G16    29.79S HX  82
KENOSHA        FAIR      83  61  47 W10       29.78S HX  83
FOND DU LAC    FAIR      80  62  54 W7        29.77S HX  81
SHEBOYGAN      FAIR      82  62  50 NW10      29.76R HX  83
WEST BEND      FAIR      79  61  53 N7        29.78S HX  80
JUNEAU         FAIR      78  63  61 W5        29.80R
$$

LSZ147-162-261700-
LAKE SUPERIOR

STATION/POSITION TIME  TEMP    WIND        PRES    WAVE
                       AIR SEA DIR/SP/G            HT/PER
                 (UTC) (F)     (DEG/KT/KT) (MB)    (FT/S)
W MID LAKE BUOY  1450   39 36  340/ 10/ 12 1005.5R   1
DEVILS ISLAND    1500   46      90/  5/  6 1005.5R
SAXON HARBOR     1530   80     210/  6/ 10 1004.1F
$$

LMZ867-665-643>646-261700-
LAKE MICHIGAN

STATION/POSITION TIME  TEMP    WIND        PRES    WAVE
                       AIR SEA DIR/SP/G            HT/PER
                 (UTC) (F)     (DEG/KT/KT) (MB)    (FT/S)
N MID LAKE BUOY  1540   43 38  140/  6/  8 1007.6F
NORTHPORT PIER   1540   52     140/  5/  5 1007.1S
KEWAUNEE LAKESHO 1530          170/  5/  6 1006.8R
SHEBOYGAN LAKESH 1500   71     330/  2/  4 1006.9S
PORT WASHINGTON  1540   84     280/  5/ 12 1008.5S
ATWATER BUOY     1507   68 50  300/  8/ 10 1008.0    1
MILWAUKEE LAKESH 1530   79     300/ 10/ 13   N/A
S MID LAKE BUOY  1450   46 39  170/  8/  8 1009.0R   1
KENOSHA   LAKESH 1500   79                 1007.8
$$

TC  - TEMPERATURE IN CELSIUS
VSB - VISIBILITY IN STATUTE MILES
WCI - WIND CHILL INDEX
HX  - HEAT INDEX





USA.gov is the U.S. government's official web portal to all federal, state and local government web resources and services.